Weather History for Wellsville, NY

Change the Weather History Date:

Wednesday, June 19, 2013

  Actual Average (KBFD) Record (KBFD)
Temperature  
Mean Temperature 55 °F 63 °F  
Max Temperature 68 °F 75 °F 87 °F (1987)
Min Temperature 44 °F 51 °F 35 °F (1958)
Degree Days  
Heating Degree Days 10 1  
Month to date heating degree days 48  
Since 1 June heating degree days 48  
Since 1 July heating degree days 7676  
Cooling Degree Days 0 1  
Month to date cooling degree days 19  
Year to date cooling degree days 29  
Since 1 June cooling degree days 19  
Growing Degree Days 5 (Base 50)    
Moisture  
Dew Point 43 °F    
Average Humidity 69    
Maximum Humidity 96    
Minimum Humidity 39    
Precipitation  
Precipitation 0.00 in 0.16 in 2.40 in (1983)
Month to date precipitation 3.15  
Year to date precipitation 19.89  
Sea Level Pressure  
Sea Level Pressure 30.14 in    
Wind  
Wind Speed 3 mph (North)    
Max Wind Speed 9 mph    
Max Gust Speed -    
Visibility 9 miles    
Events      
T = Trace of Precipitation, MM = Missing Value Source: NWS Daily Summary

Daily Weather History Graph

Daily Weather History Graph

Search for Another Location

Airport:

Trip Planner

Search our weather history database for the weather conditions in past years. The results will help you decide how hot, cold, wet, or windy it might be!

Date:

Astronomy

Jun. 19, 2013 Rise Set
Actual Time 5:35 AM EDT 8:51 PM EDT
Civil Twilight 5:01 AM EDT 9:25 PM EDT
Nautical Twilight 4:16 AM EDT 10:10 PM EDT
Astronomical Twilight 3:22 AM EDT 11:04 PM EDT
Moon 4:38 PM EDT (6/19) 2:22 AM EDT (6/19)
Length of Visible Light 16h 24m
Length of Day
15h 15m
Waxing Gibbous, 80% of the Moon is Illuminated
Jun 19
Waxing Gibbous
Jun 23
Full
Jun 30
Last Quarter
Jul 8
New
Jul 15
First Quarter

Hourly Weather History & Observations

Time (EDT) Temp. Windchill Dew Point Humidity Pressure Visibility Wind Dir Wind Speed Gust Speed Precip Events Conditions
12:56 AM 50.0 °F - 42.1 °F 74% 30.04 in 10.0 mi North 3.5 mph - N/A   Clear
1:56 AM 46.9 °F - 44.1 °F 90% 30.06 in 10.0 mi Calm Calm - N/A   Clear
2:56 AM 46.0 °F - 43.0 °F 89% 30.07 in 10.0 mi Calm Calm - N/A   Clear
3:56 AM 44.1 °F - 43.0 °F 96% 30.08 in 10.0 mi Calm Calm - N/A   Clear
4:11 AM 44.6 °F - 42.8 °F 93% 30.07 in 1.5 mi Calm Calm - N/A   Clear
4:20 AM 44.6 °F - 42.8 °F 93% 30.07 in 0.8 mi Calm Calm - N/A   Clear
4:23 AM 44.6 °F - 42.8 °F 93% 30.07 in 2.0 mi Calm Calm - N/A   Clear
4:31 AM 44.6 °F 43.1 °F 42.8 °F 93% 30.07 in 10.0 mi North 3.5 mph - N/A   Clear
4:56 AM 44.1 °F 42.5 °F 42.1 °F 93% 30.09 in 10.0 mi North 3.5 mph - N/A   Clear
5:56 AM 45.0 °F 42.6 °F 42.1 °F 90% 30.10 in 10.0 mi North 4.6 mph - N/A   Clear
6:56 AM 46.9 °F - 43.0 °F 86% 30.12 in 10.0 mi NNW 4.6 mph - N/A   Clear
7:56 AM 51.1 °F - 45.0 °F 80% 30.14 in 10.0 mi NNW 3.5 mph - N/A   Clear
8:56 AM 54.0 °F - 44.1 °F 69% 30.16 in 10.0 mi North 3.5 mph - N/A   Clear
9:56 AM 59.0 °F - 44.1 °F 58% 30.16 in 10.0 mi Calm Calm - N/A   Clear
10:56 AM 62.1 °F - 44.1 °F 52% 30.17 in 10.0 mi NE 8.1 mph - N/A   Clear
11:56 AM 63.0 °F - 45.0 °F 52% 30.18 in 10.0 mi NNW 9.2 mph - N/A   Scattered Clouds
12:56 PM 63.0 °F - 43.0 °F 48% 30.17 in 10.0 mi NE 6.9 mph - N/A   Mostly Cloudy
1:56 PM 64.9 °F - 43.0 °F 45% 30.17 in 10.0 mi NE 5.8 mph - N/A   Clear
2:56 PM 66.0 °F - 42.1 °F 42% 30.17 in 10.0 mi Variable 3.5 mph - N/A   Clear
3:56 PM 66.9 °F - 41.0 °F 39% 30.17 in 10.0 mi North 5.8 mph - N/A   Clear
4:56 PM 66.9 °F - 41.0 °F 39% 30.16 in 10.0 mi NNE 6.9 mph - N/A   Clear
5:56 PM 66.0 °F - 41.0 °F 40% 30.16 in 10.0 mi Calm Calm - N/A   Clear
6:56 PM 64.9 °F - 43.0 °F 45% 30.16 in 10.0 mi NE 4.6 mph - N/A   Clear
7:56 PM 63.0 °F - 44.1 °F 50% 30.17 in 10.0 mi Calm Calm - N/A   Clear
8:56 PM 57.9 °F - 44.1 °F 60% 30.19 in 10.0 mi NNE 6.9 mph - N/A   Clear
9:56 PM 55.0 °F - 44.1 °F 67% 30.20 in 10.0 mi North 3.5 mph - N/A   Clear
10:56 PM 54.0 °F - 44.1 °F 69% 30.22 in 10.0 mi NNE 6.9 mph - N/A   Clear
11:56 PM 51.1 °F - 44.1 °F 77% 30.24 in 10.0 mi Calm Calm - N/A   Clear